Location: Aiyede
(8.4833°N, 4.4500°E)
Time: 09:09:07
(UTC+00:00)

VEP-3 - Pass Details

Date: 24 September 2020
Orbit: 997 x 33746 km, 23.9° (Epoch: 20 October)

Event Time Altitude Azimuth Distance (km) Brightness Sun altitude
Rises 18:42:03 0° 287° (WNW) 3,862 7.1 -17.0°
Reaches altitude 10° 18:43:51 10° 284° (WNW) 3,135 6.4 -17.4°
Maximum altitude 18:50:31 70° 200° (SSW) 2,175 4.3 -19.1°
Drops below altitude 10° 03:53:43 10° 91° (E) 15,223 9.6 -24.9°
Sets 04:04:45 0° 85° (E) 13,660 9.9 -22.2°
